Time,TemperatureF,DewpointF,PressureIn,WindDirection,WindDirectionDegrees,WindSpeedMPH,WindSpeedGustMPH,Humidity,HourlyPrecipIn,Conditions,Clouds,dailyrainin,SoftwareType,DateUTC
2013-02-19 00:02:00,22.6,14.3,30.02,NW,324,11.0,14.7,70,0.00,,,0.00,WUHU216HW,2013-02-19 06:02:00,
2013-02-19 00:07:00,22.4,14.2,30.02,NW,324,7.9,11.8,70,0.00,,,0.00,WUHU216HW,2013-02-19 06:07:00,
2013-02-19 00:12:00,22.4,14.2,30.03,WNW,300,6.3,9.8,70,0.00,,,0.00,WUHU216HW,2013-02-19 06:12:00,
2013-02-19 00:17:00,22.6,14.0,30.03,NNW,336,8.3,11.3,69,0.00,,,0.00,WUHU216HW,2013-02-19 06:17:00,
2013-02-19 00:22:00,22.4,13.8,30.03,NNW,329,10.1,16.7,69,0.00,,,0.00,WUHU216HW,2013-02-19 06:22:00,
2013-02-19 00:27:00,22.1,13.5,30.03,NNW,327,11.8,13.9,69,0.00,,,0.00,WUHU216HW,2013-02-19 06:27:00,
2013-02-19 00:32:00,21.7,13.2,30.03,NNW,332,10.4,12.9,69,0.00,,,0.00,WUHU216HW,2013-02-19 06:32:00,
2013-02-19 00:37:00,21.5,13.0,30.04,NNW,338,8.0,11.3,69,0.00,,,0.00,WUHU216HW,2013-02-19 06:37:00,
2013-02-19 00:42:00,21.3,12.4,30.04,NW,320,10.2,13.9,68,0.00,,,0.00,WUHU216HW,2013-02-19 06:42:00,
2013-02-19 00:47:00,21.0,12.5,30.04,NNW,333,8.0,13.1,69,0.00,,,0.00,WUHU216HW,2013-02-19 06:47:00,
2013-02-19 00:52:00,20.8,12.0,30.04,North,352,8.9,10.8,68,0.00,,,0.00,WUHU216HW,2013-02-19 06:52:00,
2013-02-19 00:57:00,20.4,11.2,30.05,NNW,330,11.5,12.9,67,0.00,,,0.00,WUHU216HW,2013-02-19 06:57:00,
2013-02-19 01:02:00,20.3,10.8,30.04,NW,317,12.2,14.1,66,0.00,,,0.00,WUHU216HW,2013-02-19 07:02:00,
2013-02-19 01:07:00,19.9,10.1,30.05,NNW,333,14.9,17.3,65,0.00,,,0.00,WUHU216HW,2013-02-19 07:07:00,
2013-02-19 01:12:00,19.5,10.0,30.05,NNW,342,9.8,15.6,66,0.00,,,0.00,WUHU216HW,2013-02-19 07:12:00,
2013-02-19 01:17:00,19.5,10.4,30.05,NW,325,8.1,13.1,67,0.00,,,0.00,WUHU216HW,2013-02-19 07:17:00,
2013-02-19 01:22:00,19.2,10.4,30.05,North,349,6.7,8.3,68,0.00,,,0.00,WUHU216HW,2013-02-19 07:22:00,
2013-02-19 01:27:00,19.2,10.4,30.06,North,352,8.1,12.1,68,0.00,,,0.00,WUHU216HW,2013-02-19 07:27:00,
2013-02-19 01:32:00,18.6,9.8,30.06,NW,323,8.5,11.0,68,0.00,,,0.00,WUHU216HW,2013-02-19 07:32:00,
2013-02-19 01:37:00,18.5,9.7,30.07,NW,324,7.8,11.8,68,0.00,,,0.00,WUHU216HW,2013-02-19 07:37:00,
2013-02-19 01:42:00,18.5,10.1,30.07,NW,321,6.2,7.2,69,0.00,,,0.00,WUHU216HW,2013-02-19 07:42:00,
2013-02-19 01:47:00,18.1,10.0,30.07,NNW,335,9.3,11.3,70,0.00,,,0.00,WUHU216HW,2013-02-19 07:47:00,
2013-02-19 01:52:00,17.9,10.1,30.07,NNW,337,9.7,12.9,71,0.00,,,0.00,WUHU216HW,2013-02-19 07:52:00,
2013-02-19 01:57:00,17.7,9.9,30.07,NNW,336,8.4,12.1,71,0.00,,,0.00,WUHU216HW,2013-02-19 07:57:00,
2013-02-19 02:02:00,17.6,9.8,30.08,NW,326,11.4,17.5,71,0.00,,,0.00,WUHU216HW,2013-02-19 08:02:00,
2013-02-19 02:07:00,17.4,9.6,30.07,NW,308,7.6,10.0,71,0.00,,,0.00,WUHU216HW,2013-02-19 08:07:00,
2013-02-19 02:12:00,17.2,9.1,30.07,NW,315,11.0,15.2,70,0.00,,,0.00,WUHU216HW,2013-02-19 08:12:00,
2013-02-19 02:17:00,17.0,8.9,30.07,NNW,346,8.7,10.2,70,0.00,,,0.00,WUHU216HW,2013-02-19 08:17:00,
2013-02-19 02:22:00,16.8,8.7,30.08,NNW,344,8.4,15.2,70,0.00,,,0.00,WUHU216HW,2013-02-19 08:22:00,
2013-02-19 02:27:00,16.7,8.6,30.08,NNW,331,9.8,11.3,70,0.00,,,0.00,WUHU216HW,2013-02-19 08:27:00,
2013-02-19 02:32:00,16.3,8.6,30.08,NNW,335,10.1,14.1,71,0.00,,,0.00,WUHU216HW,2013-02-19 08:32:00,
2013-02-19 02:37:00,16.3,8.6,30.08,NNW,328,9.1,12.1,71,0.00,,,0.00,WUHU216HW,2013-02-19 08:37:00,
2013-02-19 02:42:00,16.3,8.6,30.08,NNW,335,7.8,10.2,71,0.00,,,0.00,WUHU216HW,2013-02-19 08:42:00,
2013-02-19 02:47:00,15.9,7.9,30.08,NNW,336,9.4,14.4,70,0.00,,,0.00,WUHU216HW,2013-02-19 08:47:00,
2013-02-19 02:52:00,15.8,7.5,30.08,NW,310,9.8,13.9,69,0.00,,,0.00,WUHU216HW,2013-02-19 08:52:00,
2013-02-19 02:57:00,15.6,7.3,30.08,NNW,333,6.9,12.3,69,0.00,,,0.00,WUHU216HW,2013-02-19 08:57:00,
2013-02-19 03:02:00,15.4,6.8,30.08,NNW,337,10.8,18.1,68,0.00,,,0.00,WUHU216HW,2013-02-19 09:02:00,
2013-02-19 03:07:00,15.2,6.6,30.08,NNW,333,9.9,14.1,68,0.00,,,0.00,WUHU216HW,2013-02-19 09:07:00,
2013-02-19 03:12:00,14.9,6.3,30.09,NNW,329,9.3,13.7,68,0.00,,,0.00,WUHU216HW,2013-02-19 09:12:00,
2013-02-19 03:17:00,14.9,6.3,30.09,NNW,329,13.2,17.3,68,0.00,,,0.00,WUHU216HW,2013-02-19 09:17:00,
2013-02-19 03:22:00,14.7,6.1,30.09,NNW,340,11.4,15.4,68,0.00,,,0.00,WUHU216HW,2013-02-19 09:22:00,
2013-02-19 03:27:00,14.5,5.9,30.09,NNW,341,10.1,14.1,68,0.00,,,0.00,WUHU216HW,2013-02-19 09:27:00,
2013-02-19 03:32:00,14.5,5.9,30.10,NNW,343,8.3,10.6,68,0.00,,,0.00,WUHU216HW,2013-02-19 09:32:00,
2013-02-19 03:37:00,14.1,5.5,30.10,NNW,330,11.2,15.6,68,0.00,,,0.00,WUHU216HW,2013-02-19 09:37:00,
2013-02-19 03:42:00,14.1,5.5,30.10,NNW,340,8.5,10.6,68,0.00,,,0.00,WUHU216HW,2013-02-19 09:42:00,
2013-02-19 03:47:00,13.8,5.2,30.10,NNW,346,10.4,13.1,68,0.00,,,0.00,WUHU216HW,2013-02-19 09:47:00,
2013-02-19 03:53:00,13.6,5.0,30.10,NNW,328,9.6,11.0,68,0.00,,,0.00,WUHU216HW,2013-02-19 09:53:00,
2013-02-19 03:58:00,13.4,4.5,30.11,NNW,333,9.1,14.4,67,0.00,,,0.00,WUHU216HW,2013-02-19 09:58:00,
2013-02-19 04:03:00,13.4,4.8,30.11,NNW,328,9.6,14.7,68,0.00,,,0.00,WUHU216HW,2013-02-19 10:03:00,
2013-02-19 04:08:00,13.1,4.5,30.11,NNW,332,13.4,16.4,68,0.00,,,0.00,WUHU216HW,2013-02-19 10:08:00,
2013-02-19 04:13:00,12.9,4.3,30.11,NNW,348,8.6,12.6,68,0.00,,,0.00,WUHU216HW,2013-02-19 10:13:00,
2013-02-19 04:18:00,12.7,4.1,30.11,NNW,339,11.1,16.4,68,0.00,,,0.00,WUHU216HW,2013-02-19 10:18:00,
2013-02-19 04:23:00,12.7,4.1,30.11,NNW,346,10.2,11.3,68,0.00,,,0.00,WUHU216HW,2013-02-19 10:23:00,
2013-02-19 04:28:00,12.7,4.1,30.11,NNW,330,9.2,14.7,68,0.00,,,0.00,WUHU216HW,2013-02-19 10:28:00,
2013-02-19 04:33:00,12.7,4.1,30.11,WNW,302,9.2,11.0,68,0.00,,,0.00,WUHU216HW,2013-02-19 10:33:00,
2013-02-19 04:38:00,12.5,4.0,30.11,North,2,9.4,17.0,68,0.00,,,0.00,WUHU216HW,2013-02-19 10:38:00,
2013-02-19 04:43:00,12.3,3.8,30.12,NW,311,9.3,11.6,68,0.00,,,0.00,WUHU216HW,2013-02-19 10:43:00,
2013-02-19 04:48:00,12.2,3.7,30.13,NNW,340,9.7,13.7,68,0.00,,,0.00,WUHU216HW,2013-02-19 10:48:00,
2013-02-19 04:53:00,12.0,3.5,30.13,NNW,331,9.6,17.7,68,0.00,,,0.00,WUHU216HW,2013-02-19 10:53:00,
2013-02-19 04:58:00,12.0,3.5,30.13,NNW,336,9.5,16.2,68,0.00,,,0.00,WUHU216HW,2013-02-19 10:58:00,
2013-02-19 05:03:00,11.8,3.3,30.13,NNW,338,9.6,13.3,68,0.00,,,0.00,WUHU216HW,2013-02-19 11:03:00,
2013-02-19 05:08:00,11.8,3.3,30.14,NNW,347,5.5,7.2,68,0.00,,,0.00,WUHU216HW,2013-02-19 11:08:00,
2013-02-19 05:13:00,11.8,2.6,30.13,NNW,329,9.8,18.1,66,0.00,,,0.00,WUHU216HW,2013-02-19 11:13:00,
2013-02-19 05:18:00,11.6,2.4,30.14,NNW,344,9.0,13.9,66,0.00,,,0.00,WUHU216HW,2013-02-19 11:18:00,
2013-02-19 05:23:00,11.4,2.2,30.14,NW,317,11.7,17.0,66,0.00,,,0.00,WUHU216HW,2013-02-19 11:23:00,
2013-02-19 05:28:00,11.3,2.5,30.14,NW,318,9.5,14.4,67,0.00,,,0.00,WUHU216HW,2013-02-19 11:28:00,
2013-02-19 05:33:00,11.1,2.3,30.14,NNW,337,12.0,21.0,67,0.00,,,0.00,WUHU216HW,2013-02-19 11:33:00,
2013-02-19 05:38:00,11.1,2.3,30.14,NNW,338,12.3,20.4,67,0.00,,,0.00,WUHU216HW,2013-02-19 11:38:00,
2013-02-19 05:43:00,10.9,2.4,30.14,NW,321,11.8,15.2,68,0.00,,,0.00,WUHU216HW,2013-02-19 11:43:00,
2013-02-19 05:48:00,10.9,2.4,30.14,NW,312,11.5,17.3,68,0.00,,,0.00,WUHU216HW,2013-02-19 11:48:00,
2013-02-19 05:53:00,10.9,2.4,30.14,NW,324,14.0,18.1,68,0.00,,,0.00,WUHU216HW,2013-02-19 11:53:00,
2013-02-19 05:58:00,10.7,2.2,30.15,NNW,341,10.2,16.0,68,0.00,,,0.00,WUHU216HW,2013-02-19 11:58:00,
2013-02-19 06:03:00,10.5,2.0,30.15,NNW,336,9.4,13.3,68,0.00,,,0.00,WUHU216HW,2013-02-19 12:03:00,
2013-02-19 06:08:00,10.5,2.0,30.15,NNW,339,9.4,13.7,68,0.00,,,0.00,WUHU216HW,2013-02-19 12:08:00,
2013-02-19 06:13:00,10.5,2.0,30.15,NW,318,11.9,14.1,68,0.00,,,0.00,WUHU216HW,2013-02-19 12:13:00,
2013-02-19 06:18:00,10.5,2.3,30.15,NW,323,9.2,13.1,69,0.00,,,0.00,WUHU216HW,2013-02-19 12:18:00,
2013-02-19 06:23:00,10.5,2.3,30.16,North,351,8.4,10.6,69,0.00,,,0.00,WUHU216HW,2013-02-19 12:23:00,
2013-02-19 06:28:00,10.5,2.3,30.16,NW,325,9.4,13.1,69,0.00,,,0.00,WUHU216HW,2013-02-19 12:28:00,
2013-02-19 06:33:00,10.5,2.3,30.16,NNW,338,9.6,12.1,69,0.00,,,0.00,WUHU216HW,2013-02-19 12:33:00,
2013-02-19 06:38:00,10.5,2.3,30.16,NNW,341,7.7,9.5,69,0.00,,,0.00,WUHU216HW,2013-02-19 12:38:00,
2013-02-19 06:43:00,10.5,2.3,30.16,NNW,328,8.0,13.7,69,0.00,,,0.00,WUHU216HW,2013-02-19 12:43:00,
2013-02-19 06:48:00,10.5,2.3,30.16,NNW,342,11.3,13.3,69,0.00,,,0.00,WUHU216HW,2013-02-19 12:48:00,
2013-02-19 06:53:00,10.4,2.5,30.16,NNW,336,8.4,9.8,70,0.00,,,0.00,WUHU216HW,2013-02-19 12:53:00,
2013-02-19 06:58:00,10.4,2.5,30.17,North,349,6.6,9.0,70,0.00,,,0.00,WUHU216HW,2013-02-19 12:58:00,
2013-02-19 07:03:00,10.5,2.6,30.17,NW,310,6.5,8.7,70,0.00,,,0.00,WUHU216HW,2013-02-19 13:03:00,
2013-02-19 07:08:00,10.4,2.5,30.17,NNW,335,8.6,9.8,70,0.00,,,0.00,WUHU216HW,2013-02-19 13:08:00,
2013-02-19 07:13:00,10.5,2.3,30.17,NNW,331,10.6,16.2,69,0.00,,,0.00,WUHU216HW,2013-02-19 13:13:00,
2013-02-19 07:18:00,10.2,2.0,30.18,NNW,332,9.0,12.9,69,0.00,,,0.00,WUHU216HW,2013-02-19 13:18:00,
2013-02-19 07:23:00,10.2,2.4,30.18,NW,324,6.6,7.5,70,0.00,,,0.00,WUHU216HW,2013-02-19 13:23:00,
2013-02-19 07:28:00,10.2,2.4,30.19,NNW,340,10.8,14.7,70,0.00,,,0.00,WUHU216HW,2013-02-19 13:28:00,
2013-02-19 07:33:00,10.2,2.0,30.19,NNW,341,8.5,10.6,69,0.00,,,0.00,WUHU216HW,2013-02-19 13:33:00,
2013-02-19 07:38:00,9.9,2.2,30.20,NW,324,6.0,9.0,70,0.00,,,0.00,WUHU216HW,2013-02-19 13:38:00,
2013-02-19 07:43:00,10.2,2.0,30.20,NNW,331,7.9,10.2,69,0.00,,,0.00,WUHU216HW,2013-02-19 13:43:00,
2013-02-19 07:48:00,10.2,2.0,30.21,WNW,300,7.3,10.2,69,0.00,,,0.00,WUHU216HW,2013-02-19 13:48:00,
2013-02-19 07:53:00,10.4,1.9,30.21,NW,326,8.3,13.7,68,0.00,,,0.00,WUHU216HW,2013-02-19 13:53:00,
2013-02-19 07:58:00,10.2,1.7,30.21,NNW,335,6.8,7.9,68,0.00,,,0.00,WUHU216HW,2013-02-19 13:58:00,
2013-02-19 08:03:00,10.2,1.7,30.21,NNW,342,9.8,13.9,68,0.00,,,0.00,WUHU216HW,2013-02-19 14:03:00,
2013-02-19 08:08:00,10.5,2.3,30.21,WNW,302,5.5,6.9,69,0.00,,,0.00,WUHU216HW,2013-02-19 14:08:00,
2013-02-19 08:13:00,10.9,2.1,30.22,NNW,328,8.5,12.3,67,0.00,,,0.00,WUHU216HW,2013-02-19 14:13:00,
2013-02-19 08:18:00,10.5,1.4,30.22,NNW,329,9.8,13.9,66,0.00,,,0.00,WUHU216HW,2013-02-19 14:18:00,
2013-02-19 08:23:00,10.4,1.0,30.22,NNW,340,13.5,14.7,65,0.00,,,0.00,WUHU216HW,2013-02-19 14:23:00,
2013-02-19 08:28:00,10.4,1.3,30.22,NNW,347,9.2,10.6,66,0.00,,,0.00,WUHU216HW,2013-02-19 14:28:00,
2013-02-19 08:33:00,10.4,1.0,30.23,NW,326,11.5,14.4,65,0.00,,,0.00,WUHU216HW,2013-02-19 14:33:00,
2013-02-19 08:38:00,10.2,1.1,30.23,NNW,331,14.8,20.4,66,0.00,,,0.00,WUHU216HW,2013-02-19 14:38:00,
2013-02-19 08:43:00,10.2,1.1,30.23,NNW,327,13.5,15.6,66,0.00,,,0.00,WUHU216HW,2013-02-19 14:43:00,
2013-02-19 08:48:00,10.2,1.1,30.24,NW,321,8.2,16.4,66,0.00,,,0.00,WUHU216HW,2013-02-19 14:48:00,
2013-02-19 08:53:00,10.5,1.4,30.24,NNW,344,9.9,11.8,66,0.00,,,0.00,WUHU216HW,2013-02-19 14:53:00,
2013-02-19 08:58:00,10.5,1.1,30.24,NW,326,12.0,15.2,65,0.00,,,0.00,WUHU216HW,2013-02-19 14:58:00,
2013-02-19 09:03:00,10.5,1.1,30.24,NNW,339,10.8,15.4,65,0.00,,,0.00,WUHU216HW,2013-02-19 15:03:00,
2013-02-19 09:08:00,10.7,1.2,30.24,NNW,340,8.4,18.7,65,0.00,,,0.00,WUHU216HW,2013-02-19 15:08:00,
2013-02-19 09:13:00,10.5,0.7,30.24,NW,321,12.6,21.0,64,0.00,,,0.00,WUHU216HW,2013-02-19 15:13:00,
2013-02-19 09:18:00,10.9,1.1,30.25,West,278,6.9,10.8,64,0.00,,,0.00,WUHU216HW,2013-02-19 15:18:00,
2013-02-19 09:23:00,11.3,1.5,30.25,North,352,8.3,11.0,64,0.00,,,0.00,WUHU216HW,2013-02-19 15:23:00,
2013-02-19 09:28:00,11.3,1.5,30.25,NNW,333,12.9,18.7,64,0.00,,,0.00,WUHU216HW,2013-02-19 15:28:00,
2013-02-19 09:33:00,11.3,1.5,30.26,NNW,327,10.4,12.1,64,0.00,,,0.00,WUHU216HW,2013-02-19 15:33:00,
2013-02-19 09:38:00,11.6,1.8,30.26,North,349,3.4,5.6,64,0.00,,,0.00,WUHU216HW,2013-02-19 15:38:00,
2013-02-19 09:43:00,12.3,2.8,30.26,WNW,290,4.3,4.9,65,0.00,,,0.00,WUHU216HW,2013-02-19 15:43:00,
2013-02-19 09:48:00,12.3,2.1,30.26,NNW,327,8.9,12.3,63,0.00,,,0.00,WUHU216HW,2013-02-19 15:48:00,
2013-02-19 09:53:00,12.7,2.5,30.26,NNW,333,9.8,12.3,63,0.00,,,0.00,WUHU216HW,2013-02-19 15:53:00,
2013-02-19 09:58:00,12.5,1.6,30.26,NNW,339,10.9,17.0,61,0.00,,,0.00,WUHU216HW,2013-02-19 15:58:00,
2013-02-19 10:03:00,12.5,1.6,30.26,NW,326,8.5,11.3,61,0.00,,,0.00,WUHU216HW,2013-02-19 16:03:00,
2013-02-19 10:08:00,12.7,1.8,30.25,NNW,343,9.5,11.3,61,0.00,,,0.00,WUHU216HW,2013-02-19 16:08:00,
2013-02-19 10:13:00,12.9,2.0,30.25,NNW,340,7.9,12.1,61,0.00,,,0.00,WUHU216HW,2013-02-19 16:13:00,
2013-02-19 10:18:00,13.4,2.1,30.25,North,353,9.4,17.7,60,0.00,,,0.00,WUHU216HW,2013-02-19 16:18:00,
2013-02-19 10:23:00,13.4,2.1,30.26,NNW,334,8.1,10.8,60,0.00,,,0.00,WUHU216HW,2013-02-19 16:23:00,
2013-02-19 10:28:00,14.1,2.8,30.25,NNW,344,7.3,13.9,60,0.00,,,0.00,WUHU216HW,2013-02-19 16:28:00,
2013-02-19 10:33:00,14.3,2.9,30.26,NNW,335,6.7,7.7,60,0.00,,,0.00,WUHU216HW,2013-02-19 16:33:00,
2013-02-19 10:38:00,14.7,3.0,30.26,North,357,8.4,13.7,59,0.00,,,0.00,WUHU216HW,2013-02-19 16:38:00,
2013-02-19 10:43:00,15.2,3.1,30.26,NNW,330,8.4,11.0,58,0.00,,,0.00,WUHU216HW,2013-02-19 16:43:00,
2013-02-19 10:48:00,15.4,3.6,30.26,NNW,336,6.4,10.0,59,0.00,,,0.00,WUHU216HW,2013-02-19 16:48:00,
2013-02-19 10:53:00,15.6,3.4,30.26,NW,318,9.8,14.4,58,0.00,,,0.00,WUHU216HW,2013-02-19 16:53:00,
2013-02-19 10:58:00,15.9,4.1,30.26,West,280,5.8,6.2,59,0.00,,,0.00,WUHU216HW,2013-02-19 16:58:00,
2013-02-19 11:03:00,16.3,4.1,30.27,NW,321,7.4,10.2,58,0.00,,,0.00,WUHU216HW,2013-02-19 17:03:00,
2013-02-19 11:08:00,16.7,3.3,30.27,NNW,340,10.0,13.1,55,0.00,,,0.00,WUHU216HW,2013-02-19 17:08:00,
2013-02-19 11:13:00,16.5,3.1,30.27,NW,325,10.8,13.9,55,0.00,,,0.00,WUHU216HW,2013-02-19 17:13:00,
2013-02-19 11:18:00,16.7,3.7,30.27,NNW,340,7.3,9.0,56,0.00,,,0.00,WUHU216HW,2013-02-19 17:18:00,
2013-02-19 11:23:00,17.2,4.2,30.27,NNW,335,6.9,8.7,56,0.00,,,0.00,WUHU216HW,2013-02-19 17:23:00,
2013-02-19 11:28:00,17.7,4.2,30.26,NW,321,8.4,13.9,55,0.00,,,0.00,WUHU216HW,2013-02-19 17:28:00,
2013-02-19 11:33:00,17.7,3.8,30.27,NNW,333,12.0,18.7,54,0.00,,,0.00,WUHU216HW,2013-02-19 17:33:00,
2013-02-19 11:38:00,17.7,3.8,30.26,NNW,334,8.3,12.3,54,0.00,,,0.00,WUHU216HW,2013-02-19 17:38:00,
2013-02-19 11:43:00,17.9,4.0,30.26,NW,316,9.8,17.0,54,0.00,,,0.00,WUHU216HW,2013-02-19 17:43:00,
2013-02-19 11:48:00,18.3,4.4,30.26,NNW,341,9.8,11.8,54,0.00,,,0.00,WUHU216HW,2013-02-19 17:48:00,
2013-02-19 11:53:00,18.5,4.2,30.26,North,352,9.3,11.3,53,0.00,,,0.00,WUHU216HW,2013-02-19 17:53:00,
2013-02-19 11:58:00,18.8,4.0,30.26,NW,322,9.5,12.3,52,0.00,,,0.00,WUHU216HW,2013-02-19 17:58:00,
2013-02-19 12:03:00,19.4,4.6,30.26,NW,317,9.5,14.9,52,0.00,,,0.00,WUHU216HW,2013-02-19 18:03:00,
2013-02-19 12:08:00,19.5,4.7,30.26,NNW,336,6.5,7.9,52,0.00,,,0.00,WUHU216HW,2013-02-19 18:08:00,
2013-02-19 12:13:00,19.5,4.2,30.26,NNW,332,10.5,11.3,51,0.00,,,0.00,WUHU216HW,2013-02-19 18:13:00,
2013-02-19 12:18:00,19.9,4.6,30.26,NNW,343,8.0,11.0,51,0.00,,,0.00,WUHU216HW,2013-02-19 18:18:00,
2013-02-19 12:23:00,20.4,4.6,30.26,NNW,347,8.9,16.4,50,0.00,,,0.00,WUHU216HW,2013-02-19 18:23:00,
2013-02-19 12:28:00,20.6,4.8,30.26,NNW,337,9.7,12.3,50,0.00,,,0.00,WUHU216HW,2013-02-19 18:28:00,
2013-02-19 12:33:00,20.6,4.8,30.25,NW,305,7.8,9.3,50,0.00,,,0.00,WUHU216HW,2013-02-19 18:33:00,
2013-02-19 12:38:00,21.0,4.7,30.25,NW,325,9.2,12.3,49,0.00,,,0.00,WUHU216HW,2013-02-19 18:38:00,
2013-02-19 12:43:00,21.3,5.0,30.25,NNW,334,9.8,14.1,49,0.00,,,0.00,WUHU216HW,2013-02-19 18:43:00,
2013-02-19 12:48:00,21.5,4.3,30.26,NNW,346,7.9,8.3,47,0.00,,,0.00,WUHU216HW,2013-02-19 18:48:00,
2013-02-19 12:53:00,22.1,5.3,30.26,North,350,5.9,8.7,48,0.00,,,0.00,WUHU216HW,2013-02-19 18:53:00,
2013-02-19 12:58:00,22.8,4.5,30.26,NW,324,7.8,10.6,45,0.00,,,0.00,WUHU216HW,2013-02-19 18:58:00,
2013-02-19 13:03:00,22.8,4.5,30.25,NNW,334,10.6,13.1,45,0.00,,,0.00,WUHU216HW,2013-02-19 19:03:00,
2013-02-19 13:08:00,22.8,5.0,30.26,WNW,293,6.7,9.0,46,0.00,,,0.00,WUHU216HW,2013-02-19 19:08:00,
2013-02-19 13:13:00,22.6,3.8,30.25,NNW,336,11.7,20.0,44,0.00,,,0.00,WUHU216HW,2013-02-19 19:13:00,
2013-02-19 13:18:00,23.0,4.2,30.26,North,350,8.7,11.3,44,0.00,,,0.00,WUHU216HW,2013-02-19 19:18:00,
2013-02-19 13:23:00,23.0,4.2,30.25,NNW,328,8.4,11.6,44,0.00,,,0.00,WUHU216HW,2013-02-19 19:23:00,
2013-02-19 13:28:00,23.1,3.8,30.25,NW,326,12.7,15.4,43,0.00,,,0.00,WUHU216HW,2013-02-19 19:28:00,
2013-02-19 13:33:00,23.5,4.6,30.25,NNW,335,9.5,13.3,44,0.00,,,0.00,WUHU216HW,2013-02-19 19:33:00,
2013-02-19 13:38:00,23.5,4.6,30.25,NNW,332,8.6,10.6,44,0.00,,,0.00,WUHU216HW,2013-02-19 19:38:00,
2013-02-19 13:43:00,23.9,4.0,30.25,NW,309,8.5,11.8,42,0.00,,,0.00,WUHU216HW,2013-02-19 19:43:00,
2013-02-19 13:48:00,24.0,4.6,30.25,NNW,332,5.7,6.7,43,0.00,,,0.00,WUHU216HW,2013-02-19 19:48:00,
2013-02-19 13:53:00,24.2,3.2,30.25,North,350,9.3,12.9,40,0.00,,,0.00,WUHU216HW,2013-02-19 19:53:00,
2013-02-19 13:58:00,23.9,2.9,30.25,North,359,9.2,11.8,40,0.00,,,0.00,WUHU216HW,2013-02-19 19:58:00,
2013-02-19 14:03:00,23.9,4.0,30.25,NNW,331,9.9,11.3,42,0.00,,,0.00,WUHU216HW,2013-02-19 20:03:00,
2013-02-19 14:08:00,24.2,4.8,30.24,NW,323,6.9,7.9,43,0.00,,,0.00,WUHU216HW,2013-02-19 20:08:00,
2013-02-19 14:13:00,24.6,4.6,30.25,NW,309,6.1,8.7,42,0.00,,,0.00,WUHU216HW,2013-02-19 20:13:00,
2013-02-19 14:18:00,24.9,4.9,30.25,North,358,5.4,7.5,42,0.00,,,0.00,WUHU216HW,2013-02-19 20:18:00,
2013-02-19 14:23:00,25.1,4.0,30.25,NW,323,6.8,7.9,40,0.00,,,0.00,WUHU216HW,2013-02-19 20:23:00,
2013-02-19 14:28:00,25.3,3.6,30.25,NW,318,6.2,7.9,39,0.00,,,0.00,WUHU216HW,2013-02-19 20:28:00,
2013-02-19 14:33:00,25.5,3.2,30.24,North,3,9.7,13.9,38,0.00,,,0.00,WUHU216HW,2013-02-19 20:33:00,
2013-02-19 14:38:00,24.9,2.7,30.24,NNW,340,10.5,15.4,38,0.00,,,0.00,WUHU216HW,2013-02-19 20:38:00,
2013-02-19 14:43:00,24.6,3.5,30.24,West,280,9.3,12.3,40,0.00,,,0.00,WUHU216HW,2013-02-19 20:43:00,
2013-02-19 14:48:00,25.1,2.8,30.24,WNW,299,6.4,7.2,38,0.00,,,0.00,WUHU216HW,2013-02-19 20:48:00,
2013-02-19 14:53:00,25.3,2.4,30.24,NNW,332,6.9,7.7,37,0.00,,,0.00,WUHU216HW,2013-02-19 20:53:00,
2013-02-19 14:58:00,25.7,3.4,30.24,WNW,294,5.3,8.5,38,0.00,,,0.00,WUHU216HW,2013-02-19 20:58:00,
2013-02-19 15:03:00,25.8,4.1,30.24,NW,305,3.6,6.2,39,0.00,,,0.00,WUHU216HW,2013-02-19 21:03:00,
2013-02-19 15:08:00,26.0,3.7,30.24,NW,325,6.7,9.8,38,0.00,,,0.00,WUHU216HW,2013-02-19 21:08:00,
2013-02-19 15:14:00,26.2,3.8,30.24,NW,317,5.9,9.8,38,0.00,,,0.00,WUHU216HW,2013-02-19 21:14:00,
2013-02-19 15:19:00,26.2,3.3,30.24,NW,323,8.3,11.3,37,0.00,,,0.00,WUHU216HW,2013-02-19 21:19:00,
2013-02-19 15:24:00,26.0,3.1,30.24,NNW,333,7.6,12.3,37,0.00,,,0.00,WUHU216HW,2013-02-19 21:24:00,
2013-02-19 15:29:00,25.8,2.9,30.24,NNW,328,6.3,10.6,37,0.00,,,0.00,WUHU216HW,2013-02-19 21:29:00,
2013-02-19 15:34:00,25.8,1.7,30.24,NNW,338,8.4,11.6,35,0.00,,,0.00,WUHU216HW,2013-02-19 21:34:00,
2013-02-19 15:39:00,25.7,2.2,30.24,NNW,342,7.7,10.0,36,0.00,,,0.00,WUHU216HW,2013-02-19 21:39:00,
2013-02-19 15:44:00,25.7,2.2,30.25,North,10,5.3,6.4,36,0.00,,,0.00,WUHU216HW,2013-02-19 21:44:00,
2013-02-19 15:49:00,25.7,2.2,30.24,NNW,328,5.5,7.9,36,0.00,,,0.00,WUHU216HW,2013-02-19 21:49:00,
2013-02-19 15:54:00,25.8,1.7,30.24,NW,311,7.1,10.0,35,0.00,,,0.00,WUHU216HW,2013-02-19 21:54:00,
2013-02-19 15:59:00,25.8,1.7,30.24,NNW,328,7.0,9.3,35,0.00,,,0.00,WUHU216HW,2013-02-19 21:59:00,
2013-02-19 16:04:00,25.7,1.6,30.24,NW,326,9.1,16.2,35,0.00,,,0.00,WUHU216HW,2013-02-19 22:04:00,
2013-02-19 16:09:00,25.7,1.0,30.24,NNW,342,7.6,8.5,34,0.00,,,0.00,WUHU216HW,2013-02-19 22:09:00,
2013-02-19 16:14:00,25.3,1.2,30.25,NNW,338,6.4,10.8,35,0.00,,,0.00,WUHU216HW,2013-02-19 22:14:00,
2013-02-19 16:19:00,25.5,2.0,30.24,NNW,335,5.3,6.2,36,0.00,,,0.00,WUHU216HW,2013-02-19 22:19:00,
2013-02-19 16:24:00,25.7,1.6,30.24,NW,305,3.9,5.6,35,0.00,,,0.00,WUHU216HW,2013-02-19 22:24:00,
2013-02-19 16:29:00,25.8,1.7,30.24,NW,322,5.6,11.3,35,0.00,,,0.00,WUHU216HW,2013-02-19 22:29:00,
2013-02-19 16:34:00,25.7,1.0,30.24,NNW,338,8.1,11.3,34,0.00,,,0.00,WUHU216HW,2013-02-19 22:34:00,
2013-02-19 16:39:00,25.3,0.6,30.24,NW,321,8.2,13.7,34,0.00,,,0.00,WUHU216HW,2013-02-19 22:39:00,
2013-02-19 16:44:00,24.8,0.2,30.24,NNW,333,9.2,12.1,34,0.00,,,0.00,WUHU216HW,2013-02-19 22:44:00,
2013-02-19 16:49:00,24.6,0.6,30.24,NW,322,8.4,13.1,35,0.00,,,0.00,WUHU216HW,2013-02-19 22:49:00,
2013-02-19 16:54:00,24.8,0.8,30.24,NNW,335,6.0,9.0,35,0.00,,,0.00,WUHU216HW,2013-02-19 22:54:00,
2013-02-19 16:59:00,24.9,1.5,30.24,NNW,336,4.6,6.4,36,0.00,,,0.00,WUHU216HW,2013-02-19 22:59:00,
2013-02-19 17:04:00,24.9,1.5,30.24,NW,323,5.6,7.9,36,0.00,,,0.00,WUHU216HW,2013-02-19 23:04:00,
2013-02-19 17:09:00,24.9,0.9,30.24,North,356,6.5,8.7,35,0.00,,,0.00,WUHU216HW,2013-02-19 23:09:00,
2013-02-19 17:14:00,24.8,0.8,30.24,NW,325,6.6,10.8,35,0.00,,,0.00,WUHU216HW,2013-02-19 23:14:00,
2013-02-19 17:19:00,24.6,0.6,30.24,NW,325,5.1,8.3,35,0.00,,,0.00,WUHU216HW,2013-02-19 23:19:00,
2013-02-19 17:24:00,24.4,0.4,30.23,NNW,332,5.8,7.5,35,0.00,,,0.00,WUHU216HW,2013-02-19 23:24:00,
2013-02-19 17:29:00,24.0,0.1,30.24,North,350,6.0,7.2,35,0.00,,,0.00,WUHU216HW,2013-02-19 23:29:00,
2013-02-19 17:34:00,23.9,0.0,30.24,NNW,337,7.4,8.7,35,0.00,,,0.00,WUHU216HW,2013-02-19 23:34:00,
2013-02-19 17:39:00,23.7,0.4,30.24,NNW,343,5.7,7.5,36,0.00,,,0.00,WUHU216HW,2013-02-19 23:39:00,
2013-02-19 17:44:00,23.7,0.4,30.24,NNW,327,5.0,5.9,36,0.00,,,0.00,WUHU216HW,2013-02-19 23:44:00,
2013-02-19 17:49:00,23.9,0.0,30.24,North,0,3.9,5.2,35,0.00,,,0.00,WUHU216HW,2013-02-19 23:49:00,
2013-02-19 17:54:00,23.7,0.4,30.24,NNW,336,5.4,7.7,36,0.00,,,0.00,WUHU216HW,2013-02-19 23:54:00,
2013-02-19 17:59:00,23.3,0.1,30.24,North,358,5.9,7.9,36,0.00,,,0.00,WUHU216HW,2013-02-19 23:59:00,
2013-02-19 18:04:00,23.1,-0.1,30.24,NNW,339,6.1,8.5,36,0.00,,,0.00,WUHU216HW,2013-02-20 00:04:00,
2013-02-19 18:09:00,22.8,0.2,30.24,NNW,328,7.4,9.3,37,0.00,,,0.00,WUHU216HW,2013-02-20 00:09:00,
2013-02-19 18:14:00,22.6,0.0,30.24,NNW,332,7.7,13.9,37,0.00,,,0.00,WUHU216HW,2013-02-20 00:14:00,
2013-02-19 18:19:00,22.2,-0.3,30.24,NNW,335,6.9,11.6,37,0.00,,,0.00,WUHU216HW,2013-02-20 00:19:00,
2013-02-19 18:24:00,22.2,-0.3,30.24,North,350,6.9,13.9,37,0.00,,,0.00,WUHU216HW,2013-02-20 00:24:00,
2013-02-19 18:29:00,22.1,-0.4,30.25,NNW,327,6.5,8.5,37,0.00,,,0.00,WUHU216HW,2013-02-20 00:29:00,
2013-02-19 18:34:00,22.1,0.1,30.25,NNW,343,5.7,7.9,38,0.00,,,0.00,WUHU216HW,2013-02-20 00:34:00,
2013-02-19 18:39:00,22.1,0.1,30.25,NNW,330,5.6,7.2,38,0.00,,,0.00,WUHU216HW,2013-02-20 00:39:00,
2013-02-19 18:44:00,21.9,0.0,30.25,NNW,339,5.2,6.4,38,0.00,,,0.00,WUHU216HW,2013-02-20 00:44:00,
2013-02-19 18:49:00,21.7,-0.2,30.25,North,350,4.9,8.7,38,0.00,,,0.00,WUHU216HW,2013-02-20 00:49:00,
2013-02-19 18:54:00,21.5,0.2,30.26,NNW,339,4.5,5.4,39,0.00,,,0.00,WUHU216HW,2013-02-20 00:54:00,
2013-02-19 18:59:00,21.3,0.0,30.26,NW,318,9.2,10.6,39,0.00,,,0.00,WUHU216HW,2013-02-20 00:59:00,
2013-02-19 19:04:00,21.3,0.5,30.25,North,357,4.8,5.4,40,0.00,,,0.00,WUHU216HW,2013-02-20 01:04:00,
2013-02-19 19:09:00,21.3,0.5,30.25,NNW,341,6.9,9.3,40,0.00,,,0.00,WUHU216HW,2013-02-20 01:09:00,
2013-02-19 19:14:00,21.0,0.8,30.25,NNW,328,6.6,11.3,41,0.00,,,0.00,WUHU216HW,2013-02-20 01:14:00,
2013-02-19 19:19:00,20.6,1.0,30.24,North,355,7.4,9.0,42,0.00,,,0.00,WUHU216HW,2013-02-20 01:19:00,
2013-02-19 19:24:00,20.6,1.0,30.24,North,355,5.1,6.4,42,0.00,,,0.00,WUHU216HW,2013-02-20 01:24:00,
2013-02-19 19:29:00,20.6,1.0,30.25,North,0,3.5,5.2,42,0.00,,,0.00,WUHU216HW,2013-02-20 01:29:00,
2013-02-19 19:34:00,20.6,1.5,30.25,NNW,341,2.9,4.6,43,0.00,,,0.00,WUHU216HW,2013-02-20 01:34:00,
2013-02-19 19:39:00,20.6,1.5,30.26,NNW,344,2.7,4.4,43,0.00,,,0.00,WUHU216HW,2013-02-20 01:39:00,
2013-02-19 19:44:00,20.6,2.0,30.26,NNW,344,1.6,3.9,44,0.00,,,0.00,WUHU216HW,2013-02-20 01:44:00,
2013-02-19 19:49:00,20.6,2.0,30.26,NNW,333,2.3,3.1,44,0.00,,,0.00,WUHU216HW,2013-02-20 01:49:00,
2013-02-19 19:54:00,20.6,2.0,30.25,NNW,329,4.4,7.2,44,0.00,,,0.00,WUHU216HW,2013-02-20 01:54:00,
2013-02-19 19:59:00,20.3,1.7,30.26,NNW,338,5.3,7.7,44,0.00,,,0.00,WUHU216HW,2013-02-20 01:59:00,
2013-02-19 20:04:00,19.9,1.3,30.26,NW,317,4.6,8.5,44,0.00,,,0.00,WUHU216HW,2013-02-20 02:04:00,
2013-02-19 20:09:00,19.7,1.1,30.26,NW,325,4.1,6.7,44,0.00,,,0.00,WUHU216HW,2013-02-20 02:09:00,
2013-02-19 20:14:00,19.5,1.5,30.27,NNW,339,2.7,3.1,45,0.00,,,0.00,WUHU216HW,2013-02-20 02:14:00,
2013-02-19 20:19:00,19.9,1.8,30.26,NNW,341,2.5,3.3,45,0.00,,,0.00,WUHU216HW,2013-02-20 02:19:00,
2013-02-19 20:24:00,19.9,1.8,30.26,North,0,3.3,4.6,45,0.00,,,0.00,WUHU216HW,2013-02-20 02:24:00,
2013-02-19 20:29:00,19.7,1.6,30.26,North,0,3.8,7.2,45,0.00,,,0.00,WUHU216HW,2013-02-20 02:29:00,
2013-02-19 20:34:00,19.7,1.6,30.26,North,0,3.0,4.6,45,0.00,,,0.00,WUHU216HW,2013-02-20 02:34:00,
2013-02-19 20:39:00,19.4,1.4,30.26,North,8,2.7,3.6,45,0.00,,,0.00,WUHU216HW,2013-02-20 02:39:00,
2013-02-19 20:44:00,19.2,1.7,30.26,North,3,2.8,4.1,46,0.00,,,0.00,WUHU216HW,2013-02-20 02:44:00,
2013-02-19 20:49:00,19.2,1.7,30.26,North,351,3.4,4.4,46,0.00,,,0.00,WUHU216HW,2013-02-20 02:49:00,
2013-02-19 20:54:00,19.0,1.5,30.26,North,349,3.7,4.9,46,0.00,,,0.00,WUHU216HW,2013-02-20 02:54:00,
2013-02-19 20:59:00,18.8,1.8,30.26,North,353,4.8,7.9,47,0.00,,,0.00,WUHU216HW,2013-02-20 02:59:00,
2013-02-19 21:04:00,18.5,1.5,30.26,North,0,5.2,8.3,47,0.00,,,0.00,WUHU216HW,2013-02-20 03:04:00,
2013-02-19 21:09:00,18.5,1.5,30.27,North,4,4.7,6.2,47,0.00,,,0.00,WUHU216HW,2013-02-20 03:09:00,
2013-02-19 21:14:00,18.1,1.6,30.27,North,350,3.8,4.6,48,0.00,,,0.00,WUHU216HW,2013-02-20 03:14:00,
2013-02-19 21:19:00,17.9,1.4,30.28,NNW,347,3.3,6.2,48,0.00,,,0.00,WUHU216HW,2013-02-20 03:19:00,
2013-02-19 21:24:00,17.9,1.4,30.28,North,4,3.1,3.6,48,0.00,,,0.00,WUHU216HW,2013-02-20 03:24:00,
2013-02-19 21:29:00,17.9,1.9,30.28,North,356,3.9,4.6,49,0.00,,,0.00,WUHU216HW,2013-02-20 03:29:00,
2013-02-19 21:34:00,17.7,1.7,30.28,NNW,347,4.0,4.6,49,0.00,,,0.00,WUHU216HW,2013-02-20 03:34:00,
2013-02-19 21:39:00,17.4,1.4,30.28,NNW,342,4.9,5.9,49,0.00,,,0.00,WUHU216HW,2013-02-20 03:39:00,
2013-02-19 21:44:00,17.2,1.2,30.29,North,354,2.5,3.6,49,0.00,,,0.00,WUHU216HW,2013-02-20 03:44:00,
2013-02-19 21:49:00,17.4,1.8,30.29,NNW,348,2.0,2.9,50,0.00,,,0.00,WUHU216HW,2013-02-20 03:49:00,
2013-02-19 21:54:00,17.7,2.1,30.29,NW,325,2.1,2.9,50,0.00,,,0.00,WUHU216HW,2013-02-20 03:54:00,
2013-02-19 21:59:00,17.7,1.7,30.29,North,355,3.4,5.4,49,0.00,,,0.00,WUHU216HW,2013-02-20 03:59:00,
2013-02-19 22:04:00,17.4,1.4,30.29,North,350,3.5,5.4,49,0.00,,,0.00,WUHU216HW,2013-02-20 04:04:00,
2013-02-19 22:09:00,17.0,1.5,30.30,North,0,3.9,5.4,50,0.00,,,0.00,WUHU216HW,2013-02-20 04:09:00,
2013-02-19 22:14:00,16.7,1.2,30.30,NW,324,2.2,3.9,50,0.00,,,0.00,WUHU216HW,2013-02-20 04:14:00,
2013-02-19 22:19:00,16.7,1.2,30.31,North,355,2.9,4.9,50,0.00,,,0.00,WUHU216HW,2013-02-20 04:19:00,
2013-02-19 22:24:00,16.8,1.7,30.31,NNW,335,3.1,3.9,51,0.00,,,0.00,WUHU216HW,2013-02-20 04:24:00,
2013-02-19 22:29:00,16.8,1.7,30.31,NNW,343,2.5,3.3,51,0.00,,,0.00,WUHU216HW,2013-02-20 04:29:00,
2013-02-19 22:34:00,16.8,1.7,30.30,NNW,331,3.4,4.4,51,0.00,,,0.00,WUHU216HW,2013-02-20 04:34:00,
2013-02-19 22:39:00,16.7,1.6,30.30,NNW,347,3.6,4.6,51,0.00,,,0.00,WUHU216HW,2013-02-20 04:39:00,
2013-02-19 22:44:00,16.3,1.3,30.30,North,355,3.3,4.1,51,0.00,,,0.00,WUHU216HW,2013-02-20 04:44:00,
2013-02-19 22:49:00,15.9,0.9,30.30,North,359,3.0,3.9,51,0.00,,,0.00,WUHU216HW,2013-02-20 04:49:00,
2013-02-19 22:54:00,15.6,0.6,30.30,North,8,2.5,4.6,51,0.00,,,0.00,WUHU216HW,2013-02-20 04:54:00,
2013-02-19 22:59:00,15.4,0.4,30.30,North,4,5.8,7.5,51,0.00,,,0.00,WUHU216HW,2013-02-20 04:59:00,
2013-02-19 23:04:00,14.9,0.4,30.30,North,354,4.3,7.5,52,0.00,,,0.00,WUHU216HW,2013-02-20 05:04:00,
2013-02-19 23:09:00,15.0,0.5,30.31,North,10,3.2,3.6,52,0.00,,,0.00,WUHU216HW,2013-02-20 05:09:00,
2013-02-19 23:14:00,15.0,0.5,30.32,NNW,341,3.5,5.6,52,0.00,,,0.00,WUHU216HW,2013-02-20 05:14:00,
2013-02-19 23:19:00,14.9,0.4,30.32,NNW,348,2.9,4.1,52,0.00,,,0.00,WUHU216HW,2013-02-20 05:19:00,
2013-02-19 23:24:00,14.9,0.4,30.32,NNW,345,2.1,3.9,52,0.00,,,0.00,WUHU216HW,2013-02-20 05:24:00,
2013-02-19 23:29:00,14.7,0.6,30.32,North,350,3.6,4.6,53,0.00,,,0.00,WUHU216HW,2013-02-20 05:29:00,
2013-02-19 23:34:00,14.3,0.2,30.31,North,355,3.4,4.1,53,0.00,,,0.00,WUHU216HW,2013-02-20 05:34:00,
2013-02-19 23:39:00,14.0,0.4,30.31,NNW,332,4.6,5.4,54,0.00,,,0.00,WUHU216HW,2013-02-20 05:39:00,
2013-02-19 23:44:00,13.6,0.0,30.31,NNW,344,4.5,5.9,54,0.00,,,0.00,WUHU216HW,2013-02-20 05:44:00,
2013-02-19 23:49:00,13.6,0.4,30.31,North,358,2.9,3.3,55,0.00,,,0.00,WUHU216HW,2013-02-20 05:49:00,
2013-02-19 23:54:00,14.0,0.8,30.31,North,357,3.2,5.4,55,0.00,,,0.00,WUHU216HW,2013-02-20 05:54:00,
2013-02-19 23:59:00,14.0,0.8,30.32,NNW,341,3.7,6.4,55,0.00,,,0.00,WUHU216HW,2013-02-20 05:59:00,